Overview Statistics Trail Chart Weather Telemetry Raw packets
 

This is the latest recevied weather packets stored in our database for station/object OK2ZA-6. If no packets are shown the sender has not sent any weather packets the latest 10 day(s).

<< 41 42 43 44 45 46 47 >>
Time Temp. Humidity Pressure Rain* Wind** Luminosity Snow
1788073204 18.33° C 71% 1017.5 hPa 0 mm - - -
1788072604 18.33° C 72% 1017.5 hPa 0 mm - - -
1788072004 17.78° C 72% 1017.4 hPa 0 mm - - -
1788071404 17.78° C 74% 1017.4 hPa 0 mm - - -
1788070804 17.22° C 76% 1017.5 hPa 0 mm - - -
1788070204 16.67° C 77% 1017.4 hPa 0 mm - - -
1788069604 17.78° C 74% 1017.3 hPa 0 mm - - -
1788069004 18.33° C 74% 1017.1 hPa 0 mm - - -
1788068404 17.78° C 76% 1017.1 hPa 0 mm - - -
1788067804 16.67° C 79% 1017.1 hPa 0 mm - - -
1788067203 16.67° C 82% 1017.1 hPa 0 mm - - -
1788066604 16.11° C 81% 1017 hPa 0 mm - - -
1788066004 15.56° C 79% 1017 hPa 0 mm - - -
1788065404 15.56° C 81% 1016.9 hPa 0 mm - - -
1788064804 15° C 81% 1016.8 hPa 0 mm - - -
1788064218 15° C 82% 1016.8 hPa 0 mm - - -
1788063604 15° C 82% 1016.8 hPa 0 mm - - -
1788063004 14.44° C 82% 1016.9 hPa 0 mm - - -
1788062404 14.44° C 81% 1016.9 hPa 0 mm - - -
1788061803 15° C 80% 1016.9 hPa 0 mm - - -
1788061204 15° C 81% 1016.8 hPa 0 mm - - -
1788060604 15° C 80% 1016.8 hPa 0 mm - - -
1788060004 15° C 79% 1016.9 hPa 0 mm - - -
1788059404 15° C 79% 1016.9 hPa 0 mm - - -
1788058804 15° C 79% 1016.9 hPa 0 mm - - -

* Rain latest hour (hover to see other rain measurements)
** Current wind speed in m/s (hover to see current wind gust speed)